NIUSat
1 42766U 17036B 18067.56163566 .00000846 00000-0 42139-4 0 9993
2 42766 097.4143 128.4716 0017484 059.6754 300.6208 15.20158980039240
LituanicaSAT 2
1 42768U 17036D 18067.35715964 .00001793 00000-0 83910-4 0 9991
2 42768 097.4152 128.4460 0017341 063.1730 297.1276 15.20917780039239
Aalto 1
1 42775U 17036L 18067.22254345 .00000744 00000-0 37031-4 0 9994
2 42775 097.4137 128.3031 0015738 061.6239 298.6581 15.20551853039159
URSA MAIOR
1 42776U 17036M 18067.60869314 .00000785 00000-0 38861-4 0 9992
2 42776 097.4142 128.7148 0015568 060.7535 299.5255 15.20618819039210
Max Valier Sat
1 42778U 17036P 18067.60329483 .00000827 00000-0 40257-4 0 9991
2 42778 097.4163 128.9325 0014207 066.2976 293.9749 15.21073902039218
Pegasus
1 42784U 17036V 18067.23086930 .00001007 00000-0 47903-4 0 9990
2 42784 097.4143 128.6049 0014040 073.3597 286.9179 15.21389551039169
NUDATSat
1 42787U 17036Y 18067.24916949 .00001513 00000-0 69486-4 0 9998
2 42787 097.4148 128.7375 0013596 073.5659 286.7070 15.21845521039012
SUCHAI 1
1 42788U 17036Z 18067.59899193 .00001207 00000-0 56441-4 0 9995
2 42788 097.4144 129.0272 0013641 072.4041 287.8684 15.21612637039296
SKCUBE
1 42789U 17036AA 18067.59661589 .00001132 00000-0 53171-4 0 9996
2 42789 097.4142 129.0262 0013484 072.4400 287.8308 15.21596464039212
VZLUSAT 1
1 42790U 17036AB 18067.24014160 .00001473 00000-0 67712-4 0 9991
2 42790 097.4144 128.7368 0013165 073.9849 286.2836 15.21874575039163
VENTA 1
1 42791U 17036AC 18067.58204308 .00001131 00000-0 53027-4 0 9999
2 42791 097.4141 129.0435 0013118 073.1454 287.1219 15.21665156039205
Robusta 1B
1 42792U 17036AD 18067.70598360 .00001151 00000-0 53777-4 0 9992
2 42792 97.4140 129.1771 0013056 73.1838 287.0829 15.21734713 39242
D-SAT
1 42794U 17036AF 18067.56766402 .00000349 00000-0 36337-4 0 9993
2 42794 097.6057 125.9578 0125767 256.8431 101.8729 14.90793335038739
BIRD-J
1 42820U 98067MU 18067.43973241 .00013783 00000-0 15149-3 0 9996
2 42820 051.6359 151.9278 0002281 126.1800 233.9405 15.63495462038092
BIRD-G
1 42821U 98067MV 18067.59272415 .00013713 00000-0 15259-3 0 9994
2 42821 051.6358 151.4498 0002245 131.5998 228.5189 15.63183234038099
BIRD-M
1 42822U 98067MW 18067.58617889 .00014014 00000-0 15504-3 0 9990
2 42822 051.6360 151.4085 0002168 133.9373 226.1800 15.63310630038098
BIRD-B
1 42823U 98067MX 18067.58675345 .00014482 00000-0 15968-3 0 9995
2 42823 051.6367 151.4235 0004557 166.9973 193.1139 15.63360006038099
BIRD-N
1 42824U 98067MY 18067.66435337 .00014309 00000-0 15863-3 0 9992
2 42824 51.6371 151.2019 0004441 167.7213 192.3890 15.63232397 38075
TechnoSat
1 42829U 17042E 18067.48324772 .00000251 00000-0 30977-4 0 9996
2 42829 097.6048 333.5842 0014420 168.6031 191.5517 14.90776402035327
Mayak
1 42830U 17042F 18067.78645485 .00000460 00000-0 51766-4 0 9999
2 42830 97.6058 333.9699 0014523 164.8711 195.2945 14.91142546 35379
OBJECT MZ
1 42910U 98067MZ 18067.48100393 .00010018 00000-0 12214-3 0 9999
2 42910 051.6356 154.4412 0005635 191.3550 168.7317 15.61162101031638
OBJECT NA
1 42911U 98067NA 18067.83409374 .00012001 00000-0 14203-3 0 9994
2 42911 51.6365 152.3282 0005091 187.5164 172.5754 15.61718168 31677
OBJECT NB
1 42912U 98067NB 18067.80584836 .00011220 00000-0 13523-3 0 9995
2 42912 51.6367 152.8546 0004552 202.1463 157.9335 15.61322067 31687
OBJECT NC
1 42913U 98067NC 18067.61109088 .00023149 00000-0 23218-3 0 9992
2 42913 051.6350 150.8064 0002749 222.3584 137.7199 15.65399946031696
OBJECT ND
1 42914U 98067ND 18067.57627635 .00011492 00000-0 14042-3 0 9994
2 42914 051.6368 154.3544 0004539 193.3423 166.7451 15.60931640031619
QIKCOM-1
1 42983U 98067NF 18067.76764071 .00002774 00000-0 46841-4 0 9993
2 42983 51.6422 158.4832 0004359 171.9943 267.2729 15.55504232 20586
AO-91
1 43017U 17073E 18067.33938170 .00000345 00000-0 33293-4 0 9995
2 43017 097.7015 002.7234 0258954 239.7451 117.7900 14.77931384016210
EcAMSat
1 43019U 98067NG 18067.67740027 .00004381 00000-0 68819-4 0 9994
2 43019 51.6396 158.7994 0005082 153.7277 206.3973 15.55942809102897
PICSAT
1 43132U 18004X 18067.22409295 .00001177 00000-0 54111-4 0 9993
2 43132 097.5467 129.5846 0011752 092.5224 267.7357 15.22340847008357
AO-92
1 43137U 18004AC 18067.21896123 .00000914 00000-0 42562-4 0 9992
2 43137 097.5465 129.5901 0011259 094.0719 266.1804 15.22468590008345
TianYi 2
1 43155U 18008A 18067.67690787 .00000756 00000-0 49760-4 0 9995
2 43155 97.5327 143.8300 0019424 127.5877 24.9313 15.10376700 7312
2018-008C
1 43157U 18008C 18067.70339244 .00001014 00000-0 66951-4 0 9998
2 43157 97.5386 143.8366 0016961 117.4226 33.9055 15.09542217 7319
2018-008D
1 43158U 18008D 18067.76957185 .00000955 00000-0 63303-4 0 9996
2 43158 97.5333 143.8632 0015128 119.8277 31.6973 15.09548669 7304
FMN 1
1 43192U 18015A 18067.81509309 .00002099 00000-0 93612-4 0 9996
2 43192 97.3404 198.9044 0018227 131.3215 228.9590 15.22350617 5247
Shaonian Xing
1 43199U 18015H 18067.79244233 .00001681 00000-0 73413-4 0 9995
2 43199 97.3177 198.8349 0018438 144.9359 215.3094 15.23334092 5251
/EX
1
0
SB KEPS @ AMSAT $ORB18060.N
2Line Orbital Elements 18060.AMSAT
HR AMSAT ORBITAL ELEMENTS FOR AMATEUR SATELLITES IN NASA FORMAT
FROM WA5QGD FORT WORTH,TX March 1, 2018
BID: ORB18060.N
DECODE 2-LINE ELSETS WITH THE FOLLOWING KEY:
1 AAAAAU 00 0 0 BBBBB.BBBBBBBB .CCCCCCCC 00000-0 00000-0 0 DDDZ
2 AAAAA EEE.EEEE FFF.FFFF GGGGGGG HHH.HHHH III.IIII JJ.JJJJJJJJKKKKKZ
KEY: A-CATALOGNUM B-EPOCHTIME C-DECAY D-ELSETNUM E-INCLINATION F-RAAN
G-ECCENTRICITY H-ARGPERIGEE I-MNANOM J-MNMOTION K-ORBITNUM Z-CHECKSUM
TO ALL RADIO AMATEURS BT
AO-07
1 07530U 74089B 18060.53231341 -.00000054 00000-0 -56954-4 0 9994
2 07530 101.6731 029.5276 0012004 182.1875 291.1079 12.53631367980874
UO-11
1 14781U 84021B 18060.58421849 .00000052 00000-0 12631-4 0 9996
2 14781 097.6638 101.3073 0009974 078.7273 281.5062 14.82983595807496
LO-19
1 20442U 90005G 18060.81584140 -.00000003 00000-0 14830-4 0 9996
2 20442 98.6013 0.0228 0012865 105.5966 254.6639 14.32887862468515
HUBBLE
1 20580U 90037B 18060.58631538 .00000460 00000-0 17210-4 0 9993
2 20580 028.4696 106.3825 0002962 064.9313 068.4477 15.08987674329119
MET-2/21
1 22782U 93055A 18060.42881935 .00000064 00000-0 44424-4 0 9990
2 22782 082.5518 179.4431 0023412 071.0022 353.1676 13.83808907237005
AO-27
1 22825U 93061C 18060.53940115 -.00000020 00000-0 99792-5 0 9995
2 22825 98.8503 34.7761 0007531 305.3926 54.6552 14.30022885274188
IO-26
1 22826U 93061D 18060.51116931 -.00000014 00000-0 12413-4 0 9992
2 22826 098.8444 034.7985 0007944 293.8631 066.1718 14.30353909274112
FO-29
1 24278U 96046B 18060.56655397 -.00000015 00000-0 19496-4 0 9999
2 24278 098.5277 274.0871 0350865 030.2852 331.8064 13.53082078063437
NOAA-15
1 25338U 98030A 18060.54550335 .00000016 00000-0 25491-4 0 9998
2 25338 098.7759 076.8714 0010657 174.3158 185.8144 14.25840305029429
GO-32
1 25397U 98043D 18060.78105629 -.00000019 00000-0 10924-4 0 9994
2 25397 98.6400 3.0564 0001301 24.6629 335.4612 14.23640547 20447
ISS
1 25544U 98067A 18060.57835756 .00001767 00000-0 33881-4 0 9999
2 25544 051.6406 195.1666 0002959 141.4622 319.1766 15.54168370101783
NO-44
1 26931U 01043C 18060.61375315 -.00000032 00000-0 19618-4 0 9990
2 26931 067.0515 146.9826 0006122 282.5595 077.4821 14.30495358857090
